QPF
0.01 0.04 0.11 0.15 0.12 0.10 0.03 0.01 0.01 0.00 0.00 0.00 0.00 0.00 0.01 0.01 0.02 0.05 0.08 0.10 0.09 0.12 0.16 0.16 0.15 0.15 0.14 0.11 0.06 0.05 0.04 0.04 0.06 0.06 0.06 0.06 0.07 0.06 0.08 0.07 0.08 0.06 0.05 0.05 0.06 0.05 0.04 0.04 0.04
0.04 0.10 0.14 0.14 0.13 0.05 0.02 0.01 0.01 0.00 0.00 0.00 0.00 0.00 0.00 0.01 0.02 0.05 0.08 0.09 0.08 0.08 0.11 0.12 0.11 0.13 0.13 0.11 0.09 0.08 0.08 0.09 0.08 0.06 0.07 0.06 0.05 0.06 0.08 0.07 0.08 0.07 0.05 0.04 0.04 0.03 0.02 0.03 0.03
0.08 0.12 0.16 0.16 0.12 0.03 0.01 0.01 0.01 0.00 0.00 0.00 0.00 0.00 0.01 0.02 0.04 0.05 0.07 0.07 0.08 0.08 0.09 0.13 0.13 0.11 0.08 0.08 0.10 0.11 0.12 0.09 0.06 0.06 0.07 0.05 0.05 0.06 0.08 0.09 0.07 0.07 0.06 0.05 0.04 0.02 0.02 0.03 0.03
0.09 0.14 0.16 0.13 0.04 0.01 0.01 0.01 0.00 0.00 0.00 0.00 0.00 0.00 0.02 0.04 0.04 0.05 0.05 0.05 0.07 0.07 0.10 0.20 0.18 0.11 0.10 0.08 0.10 0.11 0.11 0.07 0.06 0.06 0.06 0.07 0.08 0.07 0.10 0.10 0.08 0.08 0.07 0.06 0.04 0.03 0.03 0.03 0.03
0.12 0.18 0.17 0.10 0.02 0.01 0.01 0.00 0.00 0.00 0.00 0.00 0.00 0.01 0.02 0.04 0.03 0.04 0.06 0.08 0.07 0.10 0.18 0.24 0.22 0.18 0.15 0.14 0.14 0.12 0.10 0.07 0.06 0.06 0.04 0.05 0.07 0.08 0.13 0.15 0.12 0.12 0.10 0.07 0.07 0.06 0.03 0.03 0.04
0.22 0.28 0.13 0.07 0.03 0.02 0.01 0.00 0.00 0.00 0.00 0.00 0.01 0.01 0.02 0.04 0.03 0.05 0.06 0.09 0.08 0.10 0.17 0.19 0.25 0.27 0.24 0.20 0.15 0.11 0.09 0.08 0.07 0.06 0.05 0.05 0.07 0.08 0.11 0.18 0.15 0.15 0.13 0.10 0.08 0.06 0.04 0.05 0.06
0.16 0.16 0.07 0.03 0.02 0.01 0.01 0.00 0.00 0.00 0.00 0.00 0.00 0.01 0.02 0.03 0.02 0.03 0.04 0.09 0.08 0.09 0.12 0.13 0.15 0.21 0.23 0.20 0.14 0.10 0.08 0.10 0.08 0.07 0.05 0.06 0.07 0.07 0.09 0.18 0.11 0.12 0.11 0.11 0.10 0.07 0.05 0.07 0.10
0.08 0.09 0.04 0.02 0.02 0.01 0.01 0.00 0.00 0.00 0.00 0.00 0.00 0.00 0.01 0.01 0.01 0.02 0.02 0.04 0.07 0.07 0.09 0.07 0.08 0.11 0.10 0.12 0.14 0.15 0.11 0.10 0.09 0.06 0.06 0.08 0.10 0.08 0.09 0.11 0.09 0.11 0.11 0.11 0.12 0.09 0.07 0.12 0.15
0.11 0.07 0.03 0.01 0.01 0.01 0.01 0.00 0.00 0.01 0.00 0.00 0.00 0.00 0.00 0.00 0.01 0.01 0.02 0.02 0.04 0.04 0.05 0.06 0.07 0.07 0.07 0.09 0.17 0.22 0.17 0.13 0.11 0.11 0.09 0.09 0.08 0.07 0.08 0.08 0.09 0.14 0.16 0.15 0.14 0.14 0.10 0.12 0.13
0.11 0.06 0.02 0.01 0.01 0.01 0.01 0.00 0.00 0.01 0.00 0.00 0.00 0.00 0.00 0.00 0.00 0.01 0.02 0.02 0.03 0.03 0.03 0.04 0.05 0.06 0.10 0.15 0.21 0.24 0.17 0.11 0.10 0.09 0.08 0.06 0.05 0.06 0.09 0.10 0.12 0.17 0.21 0.21 0.18 0.17 0.15 0.10 0.07
0.02 0.02 0.01 0.01 0.01 0.00 0.00 0.00 0.00 0.00 0.00 0.00 0.00 0.00 0.00 0.00 0.00 0.01 0.01 0.03 0.05 0.05 0.04 0.04 0.04 0.04 0.09 0.13 0.18 0.18 0.12 0.07 0.08 0.08 0.07 0.07 0.07 0.07 0.08 0.09 0.14 0.18 0.16 0.15 0.14 0.11 0.13 0.08 0.06
0.01 0.00 0.00 0.01 0.00 0.01 0.01 0.00 0.00 0.00 0.00 0.00 0.00 0.00 0.00 0.00 0.00 0.00 0.01 0.02 0.02 0.02 0.02 0.02 0.02 0.03 0.06 0.10 0.13 0.16 0.11 0.08 0.09 0.11 0.10 0.12 0.11 0.10 0.08 0.05 0.04 0.06 0.05 0.07 0.07 0.05 0.06 0.06 0.05
0.00 0.00 0.00 0.01 0.01 0.01 0.01 0.00 0.00 0.01 0.00 0.00 0.00 0.00 0.00 0.00 0.00 0.00 0.00 0.00 0.00 0.00 0.01 0.01 0.01 0.03 0.05 0.06 0.08 0.13 0.13 0.13 0.13 0.11 0.10 0.12 0.10 0.07 0.04 0.03 0.02 0.03 0.04 0.06 0.06 0.04 0.04 0.05 0.05
0.00 0.00 0.00 0.00 0.01 0.00 0.01 0.01 0.02 0.02 0.01 0.01 0.01 0.01 0.00 0.00 0.00 0.00 0.00 0.00 0.00 0.00 0.00 0.01 0.01 0.02 0.04 0.05 0.06 0.09 0.13 0.15 0.12 0.09 0.10 0.12 0.09 0.07 0.04 0.04 0.04 0.03 0.04 0.05 0.05 0.04 0.04 0.05 0.03
0.00 0.00 0.00 0.00 0.00 0.00 0.01 0.01 0.02 0.01 0.01 0.01 0.01 0.01 0.01 0.01 0.01 0.01 0.01 0.01 0.00 0.00 0.00 0.01 0.01 0.02 0.05 0.05 0.04 0.03 0.05 0.06 0.07 0.08 0.10 0.10 0.07 0.04 0.03 0.03 0.04 0.05 0.04 0.05 0.06 0.06 0.06 0.08 0.04
0.00 0.01 0.01 0.00 0.00 0.00 0.00 0.01 0.01 0.02 0.01 0.01 0.01 0.01 0.02 0.02 0.02 0.02 0.02 0.01 0.00 0.00 0.01 0.01 0.01 0.02 0.04 0.03 0.04 0.05 0.06 0.09 0.09 0.08 0.08 0.07 0.06 0.03 0.02 0.02 0.03 0.05 0.05 0.06 0.08 0.09 0.08 0.08 0.05
0.01 0.01 0.01 0.01 0.01 0.00 0.01 0.01 0.01 0.02 0.01 0.01 0.03 0.04 0.04 0.03 0.02 0.03 0.03 0.02 0.01 0.01 0.01 0.01 0.01 0.03 0.04 0.04 0.04 0.05 0.05 0.08 0.13 0.11 0.08 0.06 0.05 0.02 0.02 0.02 0.03 0.04 0.07 0.09 0.09 0.08 0.08 0.07 0.06
0.01 0.01 0.01 0.01 0.01 0.01 0.02 0.01 0.01 0.01 0.02 0.02 0.02 0.02 0.08 0.04 0.02 0.03 0.03 0.03 0.01 0.01 0.01 0.01 0.01 0.02 0.02 0.04 0.05 0.05 0.05 0.06 0.11 0.13 0.09 0.07 0.03 0.03 0.03 0.03 0.03 0.04 0.07 0.11 0.11 0.10 0.10 0.10 0.08
0.00 0.00 0.01 0.01 0.01 0.01 0.03 0.02 0.01 0.02 0.02 0.04 0.02 0.02 0.02 0.02 0.03 0.08 0.03 0.02 0.02 0.02 0.01 0.02 0.02 0.01 0.01 0.02 0.05 0.06 0.05 0.05 0.07 0.08 0.09 0.06 0.03 0.03 0.04 0.04 0.04 0.04 0.05 0.07 0.09 0.11 0.11 0.11 0.11
0.00 0.01 0.01 0.01 0.01 0.02 0.03 0.02 0.02 0.02 0.04 0.04 0.03 0.02 0.02 0.02 0.02 0.02 0.01 0.01 0.01 0.02 0.01 0.01 0.01 0.01 0.00 0.01 0.05 0.08 0.07 0.05 0.04 0.03 0.03 0.03 0.02 0.04 0.04 0.04 0.02 0.03 0.04 0.05 0.08 0.09 0.09 0.09 0.09
0.00 0.00 0.01 0.01 0.02 0.02 0.02 0.03 0.03 0.03 0.06 0.04 0.05 0.05 0.04 0.04 0.03 0.02 0.01 0.00 0.00 0.01 0.01 0.01 0.02 0.01 0.01 0.01 0.04 0.11 0.11 0.08 0.06 0.03 0.03 0.02 0.03 0.06 0.05 0.03 0.01 0.02 0.02 0.02 0.04 0.06 0.08 0.09 0.10
0.00 0.00 0.00 0.01 0.02 0.03 0.02 0.03 0.06 0.07 0.06 0.04 0.06 0.09 0.07 0.05 0.04 0.03 0.01 0.00 0.00 0.00 0.01 0.01 0.01 0.01 0.01 0.01 0.02 0.08 0.13 0.11 0.08 0.04 0.02 0.02 0.03 0.06 0.06 0.03 0.02 0.02 0.02 0.01 0.01 0.02 0.03 0.05 0.07
0.00 0.00 0.00 0.00 0.00 0.01 0.01 0.01 0.05 0.13 0.08 0.07 0.07 0.06 0.06 0.04 0.04 0.03 0.01 0.01 0.01 0.00 0.00 0.00 0.00 0.01 0.01 0.01 0.01 0.02 0.08 0.13 0.12 0.07 0.04 0.04 0.04 0.04 0.04 0.03 0.03 0.04 0.04 0.05 0.04 0.02 0.02 0.02 0.03
0.00 0.00 0.00 0.00 0.00 0.00 0.01 0.01 0.03 0.10 0.08 0.08 0.09 0.07 0.06 0.07 0.05 0.03 0.03 0.03 0.02 0.01 0.01 0.01 0.01 0.01 0.01 0.00 0.01 0.01 0.02 0.06 0.12 0.12 0.08 0.06 0.05 0.03 0.03 0.03 0.04 0.05 0.06 0.10 0.11 0.07 0.05 0.04 0.03
0.00 0.00 0.00 0.00 0.00 0.00 0.01 0.01 0.02 0.05 0.09 0.07 0.07 0.07 0.05 0.06 0.06 0.05 0.04 0.05 0.04 0.04 0.03 0.02 0.02 0.02 0.02 0.01 0.01 0.01 0.01 0.02 0.08 0.14 0.13 0.11 0.08 0.05 0.04 0.04 0.04 0.04 0.05 0.07 0.09 0.10 0.09 0.07 0.05
0.00 0.00 0.00 0.00 0.00 0.00 0.01 0.02 0.03 0.03 0.04 0.04 0.04 0.06 0.06 0.07 0.08 0.08 0.09 0.11 0.06 0.05 0.03 0.02 0.02 0.02 0.02 0.01 0.01 0.01 0.01 0.01 0.03 0.07 0.09 0.11 0.13 0.10 0.05 0.04 0.04 0.03 0.05 0.06 0.06 0.07 0.07 0.07 0.06
0.00 0.00 0.00 0.00 0.00 0.00 0.01 0.02 0.05 0.04 0.05 0.09 0.06 0.05 0.08 0.06 0.11 0.13 0.13 0.16 0.13 0.05 0.04 0.02 0.01 0.01 0.02 0.01 0.01 0.01 0.01 0.01 0.01 0.01 0.01 0.02 0.05 0.11 0.12 0.07 0.05 0.04 0.04 0.05 0.07 0.08 0.08 0.08 0.07
0.00 0.00 0.00 0.00 0.00 0.00 0.02 0.02 0.08 0.13 0.11 0.08 0.08 0.04 0.04 0.03 0.08 0.12 0.10 0.12 0.11 0.05 0.05 0.03 0.01 0.01 0.01 0.01 0.02 0.02 0.01 0.00 0.01 0.01 0.01 0.02 0.02 0.03 0.07 0.11 0.09 0.06 0.05 0.06 0.07 0.07 0.07 0.08 0.09
0.00 0.00 0.00 0.00 0.00 0.00 0.02 0.03 0.04 0.09 0.11 0.09 0.09 0.03 0.03 0.03 0.03 0.04 0.06 0.08 0.09 0.07 0.06 0.07 0.04 0.03 0.02 0.02 0.02 0.02 0.02 0.01 0.01 0.01 0.01 0.01 0.03 0.03 0.03 0.04 0.05 0.07 0.07 0.08 0.08 0.08 0.08 0.10 0.09
0.00 0.00 0.00 0.00 0.00 0.00 0.01 0.02 0.01 0.02 0.04 0.13 0.16 0.04 0.03 0.03 0.04 0.03 0.04 0.07 0.07 0.05 0.05 0.06 0.07 0.07 0.05 0.03 0.03 0.02 0.03 0.03 0.02 0.01 0.01 0.01 0.03 0.03 0.03 0.04 0.04 0.05 0.06 0.08 0.09 0.10 0.10 0.10 0.08
MSLP
1004.96 1006.00 1007.29 1008.64 1009.86 1010.78 1011.28 1011.35 1011.08 1010.62 1010.17 1009.91 1009.93 1010.23 1010.69 1011.15 1011.40 1011.27 1010.69 1009.69 1008.42 1007.07 1005.87 1005.02 1004.67 1004.81 1005.37 1006.22 1007.18 1008.11 1008.93 1009.59 1010.13 1010.61 1011.10 1011.64 1012.24 1012.88 1013.49 1014.03 1014.45 1014.74 1014.93 1015.06 1015.18 1015.34 1015.57 1015.86 1016.18
1005.35 1006.52 1007.87 1009.22 1010.37 1011.15 1011.49 1011.41 1010.99 1010.44 1009.94 1009.67 1009.71 1010.04 1010.53 1010.99 1011.21 1011.01 1010.32 1009.18 1007.74 1006.22 1004.88 1003.93 1003.52 1003.67 1004.32 1005.31 1006.48 1007.65 1008.70 1009.59 1010.31 1010.91 1011.46 1012.00 1012.57 1013.14 1013.69 1014.19 1014.59 1014.88 1015.10 1015.26 1015.42 1015.60 1015.82 1016.10 1016.40
1005.89 1007.15 1008.52 1009.81 1010.83 1011.45 1011.63 1011.39 1010.86 1010.24 1009.73 1009.48 1009.56 1009.93 1010.45 1010.91 1011.08 1010.81 1010.01 1008.74 1007.16 1005.52 1004.06 1003.02 1002.58 1002.76 1003.49 1004.62 1005.97 1007.35 1008.62 1009.70 1010.56 1011.26 1011.83 1012.36 1012.86 1013.36 1013.85 1014.29 1014.68 1014.99 1015.24 1015.45 1015.65 1015.86 1016.10 1016.36 1016.65
1006.51 1007.82 1009.15 1010.34 1011.22 1011.68 1011.70 1011.34 1010.75 1010.10 1009.62 1009.41 1009.55 1009.96 1010.50 1010.95 1011.10 1010.76 1009.89 1008.54 1006.89 1005.17 1003.65 1002.58 1002.13 1002.34 1003.13 1004.35 1005.82 1007.35 1008.76 1009.97 1010.93 1011.67 1012.25 1012.73 1013.17 1013.59 1014.01 1014.41 1014.78 1015.12 1015.41 1015.68 1015.92 1016.16 1016.41 1016.66 1016.93
1007.12 1008.42 1009.68 1010.75 1011.48 1011.81 1011.72 1011.29 1010.68 1010.07 1009.64 1009.50 1009.70 1010.16 1010.72 1011.17 1011.29 1010.94 1010.05 1008.70 1007.05 1005.34 1003.84 1002.79 1002.36 1002.57 1003.38 1004.64 1006.15 1007.72 1009.18 1010.43 1011.42 1012.16 1012.71 1013.14 1013.51 1013.86 1014.22 1014.59 1014.96 1015.32 1015.65 1015.96 1016.24 1016.51 1016.75 1016.99 1017.23
1007.60 1008.85 1010.01 1010.96 1011.57 1011.80 1011.66 1011.23 1010.66 1010.13 1009.79 1009.74 1010.00 1010.49 1011.07 1011.52 1011.65 1011.32 1010.49 1009.23 1007.68 1006.09 1004.69 1003.71 1003.31 1003.53 1004.30 1005.51 1006.95 1008.47 1009.88 1011.08 1012.02 1012.72 1013.23 1013.60 1013.91 1014.21 1014.53 1014.87 1015.24 1015.60 1015.96 1016.30 1016.61 1016.88 1017.12 1017.33 1017.52
1007.86 1009.02 1010.07 1010.90 1011.43 1011.61 1011.48 1011.12 1010.65 1010.24 1010.01 1010.05 1010.37 1010.89 1011.47 1011.92 1012.09 1011.85 1011.15 1010.05 1008.71 1007.33 1006.11 1005.26 1004.92 1005.11 1005.81 1006.88 1008.17 1009.52 1010.78 1011.86 1012.71 1013.33 1013.78 1014.10 1014.37 1014.64 1014.93 1015.25 1015.60 1015.97 1016.33 1016.67 1016.98 1017.24 1017.45 1017.62 1017.76
1007.86 1008.91 1009.84 1010.58 1011.05 1011.24 1011.17 1010.92 1010.60 1010.34 1010.24 1010.36 1010.72 1011.24 1011.81 1012.28 1012.50 1012.37 1011.86 1011.02 1009.96 1008.86 1007.89 1007.20 1006.93 1007.11 1007.68 1008.56 1009.63 1010.75 1011.79 1012.69 1013.40 1013.94 1014.32 1014.62 1014.87 1015.12 1015.39 1015.70 1016.03 1016.38 1016.72 1017.04 1017.31 1017.54 1017.71 1017.84 1017.94
1007.64 1008.56 1009.38 1010.03 1010.48 1010.71 1010.74 1010.64 1010.49 1010.38 1010.40 1010.60 1010.98 1011.48 1012.03 1012.50 1012.78 1012.78 1012.50 1011.94 1011.22 1010.44 1009.75 1009.27 1009.09 1009.23 1009.67 1010.34 1011.14 1011.99 1012.79 1013.49 1014.05 1014.49 1014.84 1015.12 1015.37 1015.61 1015.88 1016.17 1016.47 1016.78 1017.08 1017.35 1017.58 1017.76 1017.89 1017.98 1018.03
1007.30 1008.09 1008.80 1009.38 1009.82 1010.11 1010.26 1010.31 1010.32 1010.36 1010.49 1010.73 1011.10 1011.57 1012.07 1012.52 1012.85 1012.99 1012.92 1012.67 1012.29 1011.85 1011.46 1011.18 1011.10 1011.22 1011.52 1011.98 1012.53 1013.11 1013.67 1014.17 1014.60 1014.97 1015.29 1015.57 1015.83 1016.09 1016.36 1016.62 1016.89 1017.14 1017.38 1017.58 1017.76 1017.90 1017.99 1018.04 1018.07
1006.99 1007.66 1008.25 1008.77 1009.20 1009.55 1009.81 1010.00 1010.16 1010.33 1010.53 1010.79 1011.13 1011.53 1011.96 1012.37 1012.72 1012.97 1013.10 1013.11 1013.04 1012.92 1012.80 1012.73 1012.75 1012.86 1013.06 1013.34 1013.67 1014.02 1014.37 1014.71 1015.04 1015.35 1015.66 1015.95 1016.24 1016.52 1016.78 1017.02 1017.24 1017.44 1017.61 1017.75 1017.87 1017.96 1018.02 1018.06 1018.07
1006.88 1007.43 1007.91 1008.36 1008.77 1009.15 1009.49 1009.80 1010.07 1010.33 1010.58 1010.84 1011.12 1011.44 1011.78 1012.13 1012.47 1012.78 1013.05 1013.27 1013.45 1013.59 1013.70 1013.81 1013.93 1014.05 1014.19 1014.34 1014.50 1014.68 1014.88 1015.11 1015.36 1015.64 1015.95 1016.27 1016.58 1016.87 1017.13 1017.35 1017.53 1017.67 1017.78 1017.86 1017.93 1017.99 1018.04 1018.07 1018.08
1007.08 1007.51 1007.89 1008.25 1008.63 1009.01 1009.40 1009.78 1010.13 1010.44 1010.71 1010.95 1011.17 1011.40 1011.64 1011.90 1012.20 1012.53 1012.87 1013.22 1013.56 1013.88 1014.17 1014.42 1014.63 1014.78 1014.90 1014.98 1015.05 1015.13 1015.24 1015.39 1015.60 1015.87 1016.18 1016.51 1016.84 1017.14 1017.40 1017.60 1017.74 1017.84 1017.90 1017.95 1017.99 1018.03 1018.07 1018.10 1018.12
1007.62 1007.94 1008.21 1008.48 1008.80 1009.16 1009.56 1009.97 1010.36 1010.70 1010.97 1011.18 1011.35 1011.49 1011.63 1011.81 1012.04 1012.33 1012.68 1013.07 1013.49 1013.91 1014.30 1014.65 1014.92 1015.12 1015.25 1015.33 1015.37 1015.42 1015.48 1015.61 1015.79 1016.05 1016.35 1016.68 1017.01 1017.31 1017.56 1017.75 1017.87 1017.94 1017.99 1018.02 1018.05 1018.10 1018.15 1018.19 1018.22
1008.43 1008.63 1008.80 1008.98 1009.23 1009.55 1009.93 1010.34 1010.74 1011.08 1011.35 1011.54 1011.65 1011.73 1011.80 1011.89 1012.04 1012.27 1012.57 1012.94 1013.36 1013.80 1014.23 1014.62 1014.95 1015.20 1015.38 1015.49 1015.55 1015.61 1015.68 1015.79 1015.96 1016.19 1016.47 1016.77 1017.08 1017.37 1017.61 1017.79 1017.91 1017.99 1018.04 1018.08 1018.13 1018.19 1018.26 1018.32 1018.36
1009.35 1009.45 1009.52 1009.62 1009.80 1010.08 1010.43 1010.81 1011.20 1011.53 1011.79 1011.95 1012.05 1012.09 1012.11 1012.14 1012.23 1012.38 1012.61 1012.91 1013.28 1013.68 1014.09 1014.49 1014.84 1015.14 1015.37 1015.54 1015.66 1015.75 1015.84 1015.95 1016.09 1016.28 1016.51 1016.77 1017.04 1017.29 1017.52 1017.70 1017.84 1017.95 1018.03 1018.11 1018.20 1018.28 1018.37 1018.46 1018.51
1010.18 1010.20 1010.20 1010.24 1010.38 1010.62 1010.93 1011.29 1011.65 1011.96 1012.20 1012.35 1012.44 1012.47 1012.47 1012.48 1012.52 1012.61 1012.76 1012.98 1013.26 1013.59 1013.95 1014.32 1014.68 1015.02 1015.31 1015.54 1015.73 1015.87 1015.98 1016.08 1016.19 1016.31 1016.47 1016.65 1016.85 1017.07 1017.28 1017.47 1017.65 1017.80 1017.94 1018.07 1018.20 1018.33 1018.45 1018.55 1018.61
1010.76 1010.73 1010.70 1010.73 1010.86 1011.09 1011.38 1011.71 1012.02 1012.30 1012.50 1012.64 1012.72 1012.76 1012.77 1012.79 1012.82 1012.88 1012.97 1013.12 1013.31 1013.55 1013.84 1014.17 1014.52 1014.88 1015.21 1015.51 1015.76 1015.94 1016.07 1016.15 1016.20 1016.25 1016.31 1016.40 1016.53 1016.69 1016.88 1017.09 1017.31 1017.52 1017.72 1017.92 1018.10 1018.28 1018.43 1018.55 1018.63
1010.98 1010.95 1010.96 1011.05 1011.22 1011.47 1011.76 1012.05 1012.31 1012.51 1012.66 1012.76 1012.82 1012.87 1012.91 1012.95 1013.01 1013.07 1013.15 1013.25 1013.37 1013.54 1013.76 1014.03 1014.36 1014.72 1015.09 1015.44 1015.73 1015.94 1016.07 1016.13 1016.12 1016.07 1016.03 1016.03 1016.07 1016.18 1016.35 1016.57 1016.83 1017.10 1017.37 1017.62 1017.86 1018.07 1018.25 1018.40 1018.50
1010.86 1010.90 1011.01 1011.22 1011.49 1011.80 1012.10 1012.35 1012.53 1012.64 1012.69 1012.71 1012.72 1012.76 1012.82 1012.91 1013.01 1013.12 1013.21 1013.30 1013.39 1013.51 1013.67 1013.90 1014.19 1014.54 1014.92 1015.29 1015.61 1015.84 1015.97 1015.98 1015.91 1015.79 1015.66 1015.56 1015.52 1015.58 1015.72 1015.95 1016.23 1016.55 1016.86 1017.17 1017.44 1017.69 1017.90 1018.07 1018.20
1010.47 1010.66 1010.96 1011.35 1011.78 1012.19 1012.51 1012.71 1012.78 1012.75 1012.65 1012.54 1012.47 1012.46 1012.52 1012.65 1012.82 1012.98 1013.13 1013.25 1013.34 1013.43 1013.55 1013.73 1013.99 1014.32 1014.68 1015.06 1015.38 1015.62 1015.74 1015.73 1015.61 1015.42 1015.21 1015.04 1014.94 1014.94 1015.06 1015.28 1015.57 1015.90 1016.25 1016.57 1016.86 1017.12 1017.34 1017.53 1017.69
1009.99 1010.40 1010.95 1011.58 1012.21 1012.73 1013.08 1013.22 1013.15 1012.93 1012.64 1012.35 1012.13 1012.04 1012.08 1012.24 1012.46 1012.71 1012.93 1013.10 1013.22 1013.31 1013.41 1013.56 1013.77 1014.06 1014.40 1014.75 1015.07 1015.30 1015.42 1015.39 1015.24 1015.02 1014.76 1014.53 1014.38 1014.34 1014.43 1014.62 1014.90 1015.22 1015.56 1015.87 1016.16 1016.40 1016.62 1016.83 1017.01
1009.57 1010.25 1011.09 1011.99 1012.82 1013.47 1013.83 1013.89 1013.67 1013.24 1012.71 1012.21 1011.82 1011.61 1011.60 1011.76 1012.04 1012.36 1012.67 1012.91 1013.08 1013.19 1013.28 1013.39 1013.56 1013.80 1014.10 1014.42 1014.72 1014.94 1015.05 1015.02 1014.87 1014.63 1014.36 1014.10 1013.92 1013.85 1013.90 1014.05 1014.29 1014.57 1014.86 1015.14 1015.38 1015.60 1015.80 1015.99 1016.20
1009.31 1010.28 1011.42 1012.58 1013.61 1014.35 1014.72 1014.69 1014.30 1013.65 1012.89 1012.16 1011.59 1011.25 1011.18 1011.33 1011.65 1012.05 1012.43 1012.75 1012.98 1013.12 1013.21 1013.29 1013.41 1013.59 1013.84 1014.12 1014.39 1014.60 1014.71 1014.69 1014.56 1014.33 1014.06 1013.80 1013.61 1013.51 1013.51 1013.62 1013.80 1014.01 1014.24 1014.44 1014.62 1014.79 1014.95 1015.12 1015.32
1009.26 1010.48 1011.88 1013.26 1014.43 1015.25 1015.60 1015.47 1014.93 1014.08 1013.11 1012.19 1011.45 1011.00 1010.86 1011.01 1011.36 1011.82 1012.28 1012.68 1012.96 1013.13 1013.22 1013.28 1013.36 1013.49 1013.68 1013.91 1014.14 1014.33 1014.45 1014.45 1014.34 1014.14 1013.90 1013.66 1013.46 1013.33 1013.30 1013.35 1013.45 1013.59 1013.73 1013.85 1013.96 1014.05 1014.15 1014.29 1014.47
1009.35 1010.78 1012.35 1013.87 1015.12 1015.95 1016.26 1016.04 1015.37 1014.37 1013.25 1012.19 1011.35 1010.83 1010.66 1010.81 1011.20 1011.72 1012.26 1012.71 1013.05 1013.26 1013.36 1013.40 1013.44 1013.51 1013.65 1013.82 1014.02 1014.19 1014.31 1014.33 1014.25 1014.09 1013.88 1013.66 1013.46 1013.32 1013.25 1013.24 1013.28 1013.33 1013.39 1013.43 1013.45 1013.47 1013.52 1013.60 1013.75
1009.53 1011.05 1012.68 1014.22 1015.47 1016.26 1016.50 1016.21 1015.45 1014.38 1013.20 1012.09 1011.23 1010.70 1010.54 1010.73 1011.17 1011.74 1012.34 1012.85 1013.24 1013.48 1013.59 1013.63 1013.64 1013.67 1013.76 1013.89 1014.05 1014.20 1014.30 1014.33 1014.28 1014.16 1013.98 1013.78 1013.59 1013.45 1013.34 1013.29 1013.26 1013.24 1013.22 1013.19 1013.14 1013.10 1013.09 1013.13 1013.23
1009.68 1011.18 1012.76 1014.21 1015.35 1016.04 1016.20 1015.85 1015.06 1014.00 1012.85 1011.80 1011.00 1010.54 1010.45 1010.70 1011.20 1011.83 1012.48 1013.05 1013.47 1013.75 1013.88 1013.92 1013.93 1013.94 1013.99 1014.09 1014.21 1014.33 1014.42 1014.45 1014.42 1014.31 1014.16 1013.98 1013.80 1013.65 1013.53 1013.44 1013.37 1013.30 1013.23 1013.14 1013.05 1012.96 1012.91 1012.90 1012.95
1009.76 1011.12 1012.51 1013.77 1014.72 1015.25 1015.32 1014.93 1014.18 1013.20 1012.18 1011.28 1010.63 1010.31 1010.34 1010.69 1011.26 1011.94 1012.63 1013.23 1013.69 1014.00 1014.17 1014.23 1014.25 1014.26 1014.30 1014.37 1014.46 1014.56 1014.63 1014.65 1014.60 1014.51 1014.37 1014.20 1014.03 1013.88 1013.76 1013.65 1013.56 1013.46 1013.37 1013.26 1013.14 1013.04 1012.96 1012.92 1012.94
1009.78 1010.90 1012.02 1012.99 1013.69 1014.04 1014.00 1013.60 1012.92 1012.10 1011.27 1010.59 1010.15 1010.02 1010.20 1010.65 1011.29 1012.01 1012.72 1013.35 1013.84 1014.17 1014.37 1014.48 1014.53 1014.56 1014.60 1014.67 1014.74 1014.81 1014.86 1014.86 1014.80 1014.70 1014.56 1014.40 1014.24 1014.10 1013.97 1013.87 1013.77 1013.68 1013.58 1013.47 1013.36 1013.25 1013.17 1013.12 1013.11
Thickness
5825 5821 5817 5805 5788 5775 5775 5792 5803 5803 5804 5810 5814 5807 5796 5788 5780 5772 5795 5803 5803 5801 5801 5800 5799 5798 5798 5798 5797 5796 5796 5795 5795 5794 5793 5792 5791 5789 5787 5786 5784 5783 5781 5779 5777 5775 5774 5773 5771
5828 5823 5814 5799 5778 5763 5776 5799 5803 5807 5811 5816 5814 5807 5797 5791 5796 5794 5797 5801 5802 5802 5801 5800 5799 5798 5797 5797 5796 5795 5794 5794 5793 5792 5792 5790 5789 5787 5786 5784 5783 5781 5780 5778 5776 5775 5774 5772 5771
5833 5828 5808 5791 5776 5771 5782 5804 5810 5816 5821 5819 5809 5806 5799 5793 5797 5797 5801 5802 5801 5801 5801 5800 5799 5797 5796 5795 5795 5794 5793 5792 5792 5791 5790 5789 5788 5786 5784 5783 5781 5780 5778 5777 5776 5774 5774 5772 5771
5832 5818 5805 5785 5780 5796 5804 5812 5819 5816 5817 5818 5810 5798 5800 5806 5804 5803 5804 5803 5800 5799 5800 5799 5798 5796 5795 5794 5794 5793 5792 5792 5791 5790 5789 5788 5786 5785 5783 5782 5780 5779 5777 5776 5775 5774 5773 5772 5771
5829 5809 5789 5779 5791 5809 5822 5827 5825 5816 5812 5811 5809 5793 5792 5805 5809 5807 5803 5801 5799 5797 5798 5797 5797 5795 5794 5793 5792 5792 5792 5791 5790 5789 5788 5787 5786 5784 5782 5781 5779 5777 5776 5775 5774 5774 5773 5772 5771
5817 5803 5779 5775 5794 5814 5825 5832 5827 5816 5811 5811 5807 5795 5792 5805 5806 5804 5803 5800 5799 5797 5796 5796 5796 5794 5793 5792 5791 5791 5791 5790 5789 5788 5787 5786 5785 5783 5781 5780 5778 5776 5775 5774 5773 5773 5773 5772 5771
5813 5798 5785 5790 5796 5808 5824 5834 5827 5818 5812 5814 5814 5795 5793 5801 5805 5806 5803 5800 5798 5797 5795 5794 5793 5792 5791 5791 5790 5790 5789 5789 5788 5787 5786 5785 5784 5782 5781 5779 5778 5776 5774 5773 5773 5772 5772 5772 5770
5827 5805 5793 5797 5800 5807 5829 5837 5834 5827 5819 5827 5821 5799 5792 5802 5808 5805 5801 5798 5795 5794 5793 5792 5792 5791 5791 5790 5789 5789 5788 5788 5787 5787 5786 5785 5783 5782 5781 5779 5777 5776 5774 5772 5772 5771 5771 5770 5769
5835 5800 5790 5803 5810 5816 5833 5833 5834 5839 5829 5826 5825 5817 5813 5813 5809 5802 5796 5793 5792 5791 5791 5791 5791 5791 5790 5790 5789 5789 5788 5788 5787 5786 5785 5784 5783 5781 5780 5778 5776 5775 5773 5772 5771 5770 5769 5768 5767
5825 5798 5809 5830 5834 5831 5836 5836 5834 5827 5819 5816 5817 5818 5818 5813 5807 5800 5794 5790 5789 5788 5790 5791 5791 5790 5790 5790 5789 5789 5788 5787 5786 5785 5784 5783 5782 5780 5778 5777 5775 5774 5772 5771 5770 5769 5768 5767 5766
5831 5820 5834 5844 5849 5846 5838 5837 5840 5825 5811 5816 5815 5814 5814 5810 5805 5800 5797 5794 5792 5792 5791 5791 5791 5791 5790 5790 5789 5789 5788 5787 5785 5784 5783 5782 5780 5778 5777 5776 5775 5773 5771 5770 5769 5768 5767 5767 5766
5838 5842 5848 5848 5855 5851 5843 5841 5836 5832 5827 5833 5830 5825 5817 5810 5805 5802 5798 5796 5794 5793 5793 5793 5793 5791 5791 5790 5789 5789 5788 5786 5784 5783 5782 5781 5779 5777 5776 5775 5775 5773 5772 5771 5769 5768 5767 5766 5766
5841 5843 5852 5854 5855 5855 5851 5842 5838 5833 5839 5838 5832 5825 5818 5813 5808 5806 5804 5800 5797 5794 5795 5795 5794 5792 5791 5790 5790 5788 5787 5786 5784 5783 5782 5781 5779 5777 5776 5775 5774 5773 5772 5770 5769 5768 5767 5767 5766
5846 5849 5851 5853 5853 5854 5845 5838 5836 5832 5840 5833 5827 5821 5820 5815 5812 5807 5804 5800 5798 5797 5796 5796 5795 5794 5793 5791 5790 5789 5787 5786 5785 5784 5783 5781 5780 5778 5776 5775 5774 5773 5772 5771 5769 5768 5767 5766 5766
5851 5841 5842 5848 5851 5850 5844 5824 5829 5837 5838 5830 5825 5822 5820 5818 5814 5810 5807 5804 5802 5800 5799 5797 5796 5795 5794 5792 5791 5790 5788 5787 5785 5784 5783 5781 5780 5779 5777 5775 5774 5773 5772 5771 5769 5768 5767 5766 5766
5838 5825 5817 5839 5847 5849 5833 5806 5829 5840 5835 5826 5825 5823 5819 5817 5817 5815 5813 5809 5806 5803 5801 5800 5800 5797 5795 5793 5792 5791 5789 5787 5785 5784 5783 5782 5780 5779 5778 5776 5775 5774 5772 5771 5769 5768 5766 5765 5764
5813 5803 5808 5828 5847 5846 5831 5812 5829 5838 5835 5828 5827 5824 5819 5816 5817 5818 5817 5812 5809 5806 5803 5801 5800 5797 5796 5794 5793 5791 5790 5788 5786 5785 5783 5782 5781 5780 5778 5777 5776 5774 5773 5771 5770 5767 5766 5763 5763
5795 5800 5807 5816 5836 5838 5826 5820 5828 5834 5832 5829 5827 5823 5819 5816 5817 5821 5819 5815 5811 5808 5805 5802 5800 5798 5796 5794 5792 5790 5789 5788 5787 5786 5784 5783 5781 5780 5779 5777 5776 5774 5772 5770 5769 5766 5765 5764 5763
5814 5808 5806 5820 5839 5830 5820 5819 5823 5829 5828 5825 5824 5821 5819 5818 5821 5822 5821 5817 5812 5808 5805 5802 5800 5798 5796 5793 5790 5788 5787 5787 5786 5786 5785 5783 5782 5781 5779 5778 5776 5774 5771 5770 5768 5766 5763 5762 5762
5816 5805 5806 5819 5836 5828 5815 5815 5826 5829 5827 5827 5824 5821 5820 5817 5818 5819 5819 5817 5813 5809 5806 5803 5801 5799 5797 5796 5794 5792 5790 5788 5788 5787 5786 5784 5783 5781 5780 5777 5775 5774 5771 5769 5767 5765 5761 5760 5761
5813 5806 5808 5812 5823 5824 5812 5800 5809 5822 5827 5828 5828 5827 5823 5822 5820 5820 5818 5816 5813 5810 5808 5806 5803 5800 5798 5797 5795 5792 5789 5787 5785 5784 5784 5784 5783 5781 5779 5777 5775 5773 5772 5769 5767 5766 5762 5758 5759
5804 5825 5823 5818 5803 5791 5801 5770 5794 5808 5813 5820 5824 5825 5824 5824 5824 5821 5820 5817 5815 5813 5811 5808 5804 5801 5799 5797 5794 5790 5786 5782 5783 5784 5784 5784 5783 5781 5778 5776 5775 5773 5772 5770 5768 5767 5764 5760 5756
5820 5835 5827 5819 5802 5788 5792 5774 5782 5799 5798 5811 5820 5825 5827 5828 5826 5823 5822 5820 5818 5816 5812 5808 5805 5801 5800 5798 5795 5791 5788 5785 5784 5783 5782 5781 5781 5780 5779 5777 5775 5773 5771 5770 5768 5767 5764 5762 5758
5836 5825 5814 5801 5784 5766 5781 5773 5770 5788 5799 5809 5818 5824 5827 5828 5827 5824 5823 5819 5815 5814 5811 5808 5804 5801 5800 5797 5795 5791 5788 5785 5782 5780 5779 5779 5779 5779 5778 5777 5775 5774 5772 5770 5768 5766 5764 5762 5760
5821 5788 5761 5758 5747 5755 5780 5774 5774 5804 5815 5816 5817 5820 5824 5826 5825 5821 5817 5814 5811 5809 5808 5806 5803 5800 5799 5796 5794 5791 5788 5785 5782 5780 5778 5777 5776 5776 5777 5777 5775 5773 5772 5771 5768 5766 5764 5763 5760
5807 5787 5754 5742 5740 5751 5771 5766 5785 5813 5820 5822 5824 5823 5823 5823 5822 5820 5818 5814 5811 5809 5807 5805 5802 5799 5798 5795 5793 5791 5789 5786 5783 5782 5780 5778 5777 5777 5778 5776 5775 5774 5772 5771 5769 5766 5764 5763 5761
5802 5789 5787 5761 5754 5744 5752 5770 5790 5809 5810 5812 5815 5816 5817 5818 5819 5818 5817 5814 5812 5809 5806 5804 5802 5799 5798 5796 5793 5790 5788 5786 5783 5781 5780 5778 5778 5778 5777 5776 5774 5773 5772 5770 5768 5765 5764 5763 5761
5813 5800 5773 5756 5738 5730 5743 5757 5766 5786 5795 5803 5808 5809 5811 5814 5814 5814 5814 5812 5810 5808 5805 5803 5801 5798 5797 5795 5793 5791 5788 5786 5783 5780 5778 5777 5777 5776 5774 5773 5772 5771 5770 5769 5766 5764 5763 5761 5759
5796 5789 5771 5752 5748 5730 5726 5744 5788 5789 5796 5798 5803 5806 5807 5808 5809 5809 5808 5808 5806 5803 5801 5798 5796 5794 5793 5792 5791 5789 5786 5784 5782 5779 5777 5776 5775 5774 5772 5771 5769 5768 5767 5766 5764 5762 5760 5757 5755
5795 5784 5768 5749 5743 5738 5731 5744 5794 5794 5796 5797 5798 5801 5804 5805 5805 5804 5803 5801 5798 5796 5795 5793 5793 5791 5790 5789 5786 5784 5783 5780 5777 5776 5775 5775 5773 5772 5770 5768 5766 5764 5763 5762 5760 5758 5756 5753 5751